Regional Weather Roundup
Issued by NWS

Home | Current Version | Previous Version | Graphics & Text | Print | Product List | Glossary On
Versions: 1 2 3 4 5 6 7 8 9 10 11 12 13 14 15 16 17 18 19 20 21 22 23 24 25 26 27 28 29 30 31 32 33 34 35 36 37 38 39 40 41 42 43 44 45 46 47 48 49 50
755
ASUS43 KBIS 112210
RWRND
NORTH DAKOTA REGIONAL WEATHER ROUNDUP
NATIONAL WEATHER SERVICE EASTERN NORTH DAKOTA/GRAND FORKS ND
400 PM CST THU FEB 11 2016

  NOTE: "FAIR" INDICATES FEW OR NO CLOUDS BELOW 12,000 FEET WITH NO
  SIGNIFICANT WEATHER AND/OR OBSTRUCTIONS TO VISIBILITY.

NDZ001>003-009>011-017-112300-
...NORTHWEST NORTH DAKOTA...

CITY           SKY/WX    TMP DP  RH WIND       PRES   REMARKS
WILLISTON      CLOUDY    25  18  74 N6        30.20R WCI  18
MINOT          CLOUDY    22  12  65 NW8       30.19S WCI  12
MINOT AFB      CLOUDY    21  14  74 NW1       30.19S
$$

NDZ018>021-031>035-040>046-112300-
...SOUTHWEST NORTH DAKOTA...

CITY           SKY/WX    TMP DP  RH WIND       PRES   REMARKS
BISMARCK       CLOUDY    27  18  69 N8        30.16R WCI  19
DICKINSON      CLOUDY    23  18  81 N8        30.12R HAZE    WCI  14
GARRISON         N/A     21  15  78 N5        30.17R WCI  15
HETTINGER      CLOUDY    27  23  85 NE12      30.10R WCI  17
$$

NDZ004>008-012>016-024-026-027-054-112300-
...NORTHEAST NORTH DAKOTA...

CITY           SKY/WX    TMP DP  RH WIND       PRES   REMARKS
GRAND FORKS    FLURRIES  16   7  67 W8        30.23R WCI   5
GRAND FORKS AF CLOUDY    14   7  73 NW8       30.22S WCI   3
DEVILS LAKE    FLURRIES  11   6  81 N8        30.21R WCI  -1
$$

NDZ022-023-025-028>030-036>039-047>053-112300-
...SOUTHEAST NORTH DAKOTA...

CITY           SKY/WX    TMP DP  RH WIND       PRES   REMARKS
JAMESTOWN      CLOUDY    16  11  80 N8        30.16R WCI   5
FARGO          CLOUDY    15   2  56 NW5       30.22R WCI   8
WAHPETON       CLOUDY    14   9  79 CALM      30.21R
$$




USA.gov is the U.S. government's official web portal to all federal, state and local government web resources and services.